Погода в Усть-Быстрянской

Россия / Ростовская область     47°48′56″N   41°02′48″E
темп.,
°C
ветер,
м/с
пор.,
м/с
влажн.,
%
обл.,
%
осадки,
мм/ч
давл.,
гПа
погр.,
м
11 мая, вт
вт1100:00+6юз4896100 1.0 1008406
03:00+7св1197100 1.3 1008107
06:00+6св6894100 0.4 1008442
09:00+6ссв5894100 0.8 1009437
12:00+9ююв2387100 0.2 1009363
15:00+7ююв152092100 3.6 10131274
18:00+8ююв91891100 5.0 10171278
21:00+7юв51094100 7.0 1019542
12 мая, ср
ср1200:00+8юв4897100 3.6 1019350
03:00+7всв2297100 9.3 101867
06:00+7зюз2397100 2.6 1019104
09:00+12в237813 2.7 1018501
12:00+15ююв566493 0.1 10171462
15:00+17ю465812 0.4 10171501
18:00+17ю1269100 0.0 1017113
21:00+13всв338091 0.0 101728
13 мая, чт
чт1300:00+11всв357983 0.0 101683
03:00+11всв337879 0.0 101634
06:00+12всв36818 0.0 1016137
09:00+18в46643 0.0 1015545
12:00+21вюв67608 0.0 10151264
15:00+23юв56575 0.0 10141523
18:00+22вюв367079 0.0 1014257
21:00+17вюв2286100 0.0 101511
14 мая, пт
пт1400:00+16в3387100 0.0 101428
03:00+14в33845 0.0 101426
06:00+15в398338 0.0 1014183
09:00+22вюв586638 0.0 1014435
12:00+25вюв565450 0.0 1013789
15:00+27юв67555 0.0 10131013
18:00+25вюв37670 0.0 1012228
21:00+20в33760 0.0 101127
15 мая, сб
сб1500:00+18вюв514690 0.0 1011280
03:00+15юв237499 0.0 101230
06:00+15вюв3778100 0.0 1012156
09:00+20ююв466674 0.0 1013447
12:00+25ююз346463 0.0 1013841
15:00+28юз345611 0.0 10121692
18:00+23зюз586684 0.0 1013278
21:00+17зюз3972100 0.0 1014148